Location: Bonningues
(50.7927°N, 2.0150°E)
Time: 05:28:46
(UTC+00:00)

USA 267 - Pass Details

Date: 08 August 2020
Orbit: 1102 x 1106 km, 123.0° (Epoch: 18 September)

Event Time Altitude Azimuth Distance (km) Brightness Sun altitude
Rises 23:05:55 0° 69° (ENE) 3,925 6.3 -22.5°
Reaches altitude 10° 23:08:26 10° 66° (ENE) 2,967 5.6 -22.6°
Maximum altitude 23:14:47 55° 351° (N) 1,306 3.9 -22.8°
Drops below altitude 10° 23:21:08 10° 275° (W) 2,966 5.7 -22.9°
Sets 23:23:39 0° 272° (W) 3,924 6.3 -23.0°
